Location: Newark
(8.3667°S, 17.0167°E)
Time: 17:13:42
(UTC+00:00)

LightSail 2 - Visible Passes

Search period start: 21 November 2019 00:00
Search period end: 01 December 2019 00:00
Orbit: 698 x 729 km, 24.0° (Epoch: 21 November)

Date Brightness Start Highest point End Pass type
(mag) Time Alt. Az. Time Alt. Az. Time Alt. Az.
21 Nov 7.0 18:36:00 10° WNW 18:39:28 18° NNW 18:39:48 18° NNW visible
22 Nov 6.6 17:37:17 10° W 17:41:33 26° NNW 17:45:34 11° NNE visible
24 Nov 7.4 03:21:09 10° N 03:23:52 14° NNE 03:26:36 10° ENE visible
24 Nov 7.3 17:28:26 10° WNW 17:31:14 15° NNW 17:34:02 10° N visible
26 Nov 6.7 03:10:51 17° NNW 03:13:33 25° NNE 03:17:48 10° E visible
27 Nov 7.2 02:16:35 17° NE 02:16:35 17° NE 02:19:00 10° ENE visible
27 Nov 5.4 03:56:00 10° WNW 04:01:06 66° NNE 04:06:17 10° ESE visible
28 Nov 5.8 03:01:16 31° NNW 03:03:10 45° NNE 03:08:07 10° E visible
29 Nov 6.8 02:06:56 25° ENE 02:06:56 25° ENE 02:09:47 10° E visible
29 Nov 5.3 03:45:54 12° WNW 03:50:44 70° SSW 03:55:54 10° ESE visible
30 Nov 5.0 02:51:33 52° NW 02:52:47 82° NNE 02:57:57 10° ESE visible
